Retour au catalogue

ADS-01

ActifScienceGEO
NORAD 62006·PAYLOAD·🇦🇺 Australia

Lancé Nov 17, 2024 depuis Cape Canaveral Space Force Station

Loading…

TLE

FraisSource: Space-Track

Époque: Sep 14, 2026, 15:10 UTC

1 62006U 24212A   26257.63218127 -.00000151  00000-0  00000-0 0  9995
2 62006   0.0446 270.5425 0002567 261.9750 205.0866  1.00272292  6654

Suivez ADS-01 en temps réel avec AllMySat

Download on the App Store